Regional Weather Roundup
Issued by NWS

Home | Current Version | Previous Version | Graphics & Text | Print | Product List | Glossary Off
Versions: 1 2 3 4 5 6 7 8 9 10 11 12 13 14 15 16 17 18 19 20 21 22 23 24 25 26 27 28 29 30 31 32 33 34 35 36 37 38 39 40 41 42 43 44 45 46 47 48 49 50

000
ASUS43 KDMX 071203
RWRIA

WEATHER ROUNDUP FOR IOWA
NATIONAL WEATHER SERVICE DES MOINES IA
600 AM CST SUN FEB 07 2016

NOTE: "FAIR" INDICATES FEW OR NO CLOUDS BELOW 12,000 FEET WITH NO
SIGNIFICANT WEATHER AND/OR OBSTRUCTIONS TO VISIBILITY.

* - THESE STATIONS ARE NOT NWS STATIONS...THUS NOT UNDER NWS
QUALITY CONTROL.  THEY ALSO DO NOT REPORT WEATHER SUCH
AS PRECIPITATION OR FOG.

IAZ001>003-012>014-020>022-031>034-043>046-071300-
   NORTHWEST IOWA

CITY           SKY/WX    TMP DP  RH WIND       PRES   REMARKS
CARROLL *      CLEAR     34  27  75 W14       29.86S WCI  24
CHEROKEE *     CLEAR     34  28  80 W13       29.86R WCI  25
DENISON *      CLEAR     32  25  74 W9        29.87S WCI  24
LE MARS *      CLEAR     36  21  55 W14G21    29.90R WCI  27
ORANGE CITY *  CLEAR     32  28  86 NW14      29.86R WCI  22
SHELDON *      CLEAR     34  27  75 W21       29.82S WCI  22
SIOUX CITY     CLEAR     39  25  57 NW16      29.90R WCI  30
6HR MIN TEMP:  25; 6HR MAX TEMP:  43;

SPENCER        CLEAR     33  25  72 W25       29.81S WCI  20
6HR MIN TEMP:  30; 6HR MAX TEMP:  35;

STORM LAKE *   CLEAR     32  30  93 W17       29.84S WCI  21
$$

IAZ055>058-069>071-079>083-090>094-071300-
   SOUTHWEST IOWA

CITY           SKY/WX    TMP DP  RH WIND       PRES   REMARKS
ATLANTIC *     CLOUDY    34  27  75 W10       29.91S WCI  26
AUDUBON *      CLOUDY    34  27  75 W8        29.90R WCI  27
CLARINDA *     CLEAR     32  28  86 VRB5      29.96S WCI  27
COUNCIL BLFS * MOCLDY    39  27  60 NW15G26   29.92S WCI  31
CRESTON *      CLOUDY    32  28  86 W10       29.92R WCI  24
HARLAN  *      CLEAR     32  27  80 W15       29.93S WCI  22
LAMONI         CLOUDY    36  27  69 W17       29.91R WCI  26
6HR MIN TEMP:  35; 6HR MAX TEMP:  38;

RED OAK *      PTCLDY    34  28  80 W7        29.94S WCI  28
SHENANDOAH *   CLEAR     32  32 100 SW6       29.96S WCI  26
$$

IAZ047>049-059>061-072>074-084-071300-
   CENTRAL IOWA

CITY           SKY/WX    TMP DP  RH WIND       PRES   REMARKS
AMES           MOCLDY    34  27  75 W14       29.84R WCI  25
6HR MIN TEMP:  32; 6HR MAX TEMP:  36;

ANKENY *       CLOUDY    36  30  80 W9        29.86R WCI  29
BOONE *        PTCLDY    36  28  75 W18       29.83R WCI  25
CHARITON *     CLOUDY    36  28  75 W10       29.89R WCI  28
DES MOINES     CLOUDY    36  27  69 W10       29.87R WCI  28
6HR MIN TEMP:  35; 6HR MAX TEMP:  40;

GRINNELL*      CLOUDY    34  29  82 SW14      29.84S WCI  25
KNOXVILLE *    CLOUDY    36  28  75 W14G22    29.85S WCI  27
MARSHALLTOWN   CLOUDY    34  28  79 W15       29.81S WCI  24
6HR MIN TEMP:  34; 6HR MAX TEMP:  37;

NEWTON *       CLOUDY    34  30  86 W13       29.84R WCI  25
PELLA *        CLOUDY    37  28  70 W13G20    29.87S WCI  29
$$

IAZ004>006-015-016-023>025-035-036-071300-
   NORTH CENTRAL IOWA

CITY           SKY/WX    TMP DP  RH WIND       PRES   REMARKS
ALGONA *       CLEAR     32  27  80 W16       29.78S WCI  21
CLARION *      CLEAR     30  27  86 W14       29.80R WCI  20
ESTHERVILLE    CLEAR     32  26  78 W22       29.77S WCI  19
6HR MIN TEMP:  31; 6HR MAX TEMP:  35;

FORT DODGE *   CLEAR     34  25  69 W8        29.83R WCI  27
MASON CITY     CLEAR     32  26  78 W18       29.76S WCI  20
6HR MIN TEMP:  32; 6HR MAX TEMP:  34;

FOREST CITY *  CLEAR     32  27  80 W10       29.76S WCI  24
WEBSTER CITY * CLEAR     28  25  86 W16       29.80S WCI  17
IOWA FALLS *     N/A     32  27  84 W16       29.80S WCI  21
$$

IAZ007>011-017>019-026>030-037>042-050>054-066-071300-
   NORTHEAST IOWA

CITY           SKY/WX    TMP DP  RH WIND       PRES   REMARKS
CEDAR RAPIDS   CLOUDY    36  30  79 SW10      29.81S WCI  28
6HR MIN TEMP:  35; 6HR MAX TEMP:  37;

CHARLES CITY * CLEAR     32  30  93 W12       29.75F WCI  23
CLINTON *      CLOUDY    35  29  78 SW9       29.83F WCI  28
DECORAH *      CLOUDY    34  30  86 W8G18     29.72S WCI  27
DUBUQUE        CLOUDY    34  29  82 SW18      29.77F WCI  23
6HR MIN TEMP:  33; 6HR MAX TEMP:  36;

MONTICELLO *   CLOUDY    36  30  80 SW10      29.80S WCI  28
OELWEIN *      MOCLDY    34  30  86 SW14      29.77S WCI  24
WATERLOO       PTCLDY    33  27  78 W10       29.79R WCI  25
6HR MIN TEMP:  33; 6HR MAX TEMP:  37;

$$

IAZ064-065-067-068-078-071300-
   EAST CENTRAL IOWA

CITY           SKY/WX    TMP DP  RH WIND       PRES   REMARKS
DAVENPORT      CLOUDY    37  28  70 SW15      29.83F WCI  28
6HR MIN TEMP:  37; 6HR MAX TEMP:  39;

IOWA CITY      CLOUDY    37  29  72 W8        29.86R WCI  31
6HR MIN TEMP:  35; 6HR MAX TEMP:  38;

MT. PLEASANT * CLOUDY    39  32  75 SW17      29.86F WCI  30
MUSCATINE *    CLEAR     39  28  65 S7G13     29.86F WCI  34
QUAD CITIES    PTCLDY    38  28  67 SW14      29.83F WCI  30
6HR MIN TEMP:  38; 6HR MAX TEMP:  39;

$$

IAZ062-063-075>077-085>089-095>099-071300-
   SOUTHEAST IOWA

CITY           SKY/WX    TMP DP  RH WIND       PRES   REMARKS
BURLINGTON     CLOUDY    36  29  75 SW15      29.87F WCI  27
6HR MIN TEMP:  35; 6HR MAX TEMP:  38;

FAIRFIELD *    CLOUDY    37  27  65 SW16      29.86R WCI  28
FORT MADISON * CLOUDY    37  28  70 SW14G20   29.89F WCI  29
KEOKUK *       PTCLDY    39  28  65 SW15      29.90F WCI  31
OSKALOOSA *      N/A     36  30  80 W15       29.86R WCI  26
OTTUMWA        CLOUDY    37  28  70 SW17      29.86R WCI  27
6HR MIN TEMP:  36; 6HR MAX TEMP:  39;

WASHINGTON *   CLOUDY    37  30  75 SW14      29.86R WCI  29
$$

ABBREVIATIONS USED IN REMARKS
   TC - TEMPERATURES IN CELSIUS
  WCI - WIND CHILL INDEX
   HX - HEAT INDEX
  VSB - VISIBILITY
$$




USA.gov is the U.S. government's official web portal to all federal, state and local government web resources and services.